• In Belarus
  • List of Countries
  • For 7 days
  • Water Temperature
  • Satellite Maps
  • Weather Map
  • Weather Widgets
  • user-avatar
    Login

    Hourly Weather Liepaja

    Today, 19 May, Sunday

    Time Temperature Precipitation Wind Pressure Humidity
    00:00 +16°C° 0 mm 3 mps 759 mmHg 96%
    01:00 +17°C° 0 mm 4 mps 759 mmHg 96%
    02:00 +17°C° 0.3 mm 4 mps 759 mmHg 96%
    03:00 +15°C° 0.3 mm 4 mps 759 mmHg 96%
    04:00 +15°C° 0.3 mm 4 mps 759 mmHg 96%
    05:00 +17°C° 0.6 mm 4 mps 759 mmHg 95%
    06:00 +17°C° 0.6 mm 4 mps 759 mmHg 94%
    07:00 +17°C° 0 mm 4 mps 759 mmHg 91%
    08:00 +19°C° 0 mm 3 mps 759 mmHg 86%
    09:00 +20°C° 0 mm 3 mps 759 mmHg 81%
    10:00 +21°C° 0 mm 3 mps 759 mmHg 76%
    11:00 +22°C° 0.3 mm 3 mps 759 mmHg 72%
    12:00 +24°C° 0.3 mm 3 mps 759 mmHg 67%
    13:00 +26°C° 0 mm 2 mps 759 mmHg 58%
    14:00 +26°C° 0 mm 3 mps 759 mmHg 59%
    15:00 +26°C° 0 mm 3 mps 758 mmHg 59%
    16:00 +26°C° 0 mm 3 mps 758 mmHg 60%
    17:00 +24°C° 0 mm 3 mps 758 mmHg 65%
    18:00 +22°C° 0 mm 4 mps 758 mmHg 71%
    19:00 +21°C° 0 mm 4 mps 758 mmHg 76%
    20:00 +20°C° 0 mm 4 mps 758 mmHg 75%
    21:00 +20°C° 0 mm 4 mps 758 mmHg 73%
    22:00 +19°C° 0 mm 4 mps 758 mmHg 72%
    23:00 +19°C° 0.1 mm 5 mps 758 mmHg 73%

    Tomorrow, 20 May, Monday

    Time Temperature Precipitation Wind Pressure Humidity
    00:00 +17°C° 0.1 mm 5 mps 758 mmHg 74%
    01:00 +17°C° 0.1 mm 5 mps 758 mmHg 75%
    02:00 +17°C° 0 mm 5 mps 758 mmHg 77%
    03:00 +16°C° 0 mm 5 mps 757 mmHg 80%
    04:00 +16°C° 0 mm 5 mps 757 mmHg 83%
    05:00 +17°C° 0 mm 5 mps 757 mmHg 81%
    06:00 +19°C° 0 mm 5 mps 757 mmHg 80%
    07:00 +19°C° 0 mm 5 mps 757 mmHg 79%
    08:00 +21°C° 0 mm 4 mps 757 mmHg 76%
    09:00 +22°C° 0 mm 4 mps 757 mmHg 72%
    10:00 +23°C° 0 mm 4 mps 757 mmHg 69%
    11:00 +23°C° 0.5 mm 4 mps 757 mmHg 73%
    12:00 +24°C° 0.5 mm 3 mps 757 mmHg 76%
    13:00 +24°C° 0.5 mm 3 mps 757 mmHg 79%
    14:00 +24°C° 1 mm 3 mps 757 mmHg 81%
    15:00 +22°C° 1 mm 3 mps 757 mmHg 83%
    16:00 +23°C° 1 mm 2 mps 756 mmHg 85%
    17:00 +21°C° 1.5 mm 3 mps 756 mmHg 87%
    18:00 +21°C° 1.5 mm 4 mps 756 mmHg 88%
    19:00 +20°C° 1.5 mm 4 mps 756 mmHg 90%
    20:00 +19°C° 0 mm 4 mps 756 mmHg 92%
    21:00 +19°C° 0 mm 4 mps 756 mmHg 93%
    22:00 +18°C° 0 mm 4 mps 756 mmHg 95%
    23:00 +18°C° 0 mm 4 mps 756 mmHg 95%

    Day after tomorrow, 21 May, Tuesday

    Time Temperature Precipitation Wind Pressure Humidity
    00:00 +17°C° 0 mm 4 mps 756 mmHg 95%
    01:00 +17°C° 0 mm 4 mps 756 mmHg 95%
    02:00 +17°C° 0.1 mm 4 mps 756 mmHg 96%
    03:00 +15°C° 0.1 mm 4 mps 756 mmHg 96%
    04:00 +15°C° 0.1 mm 4 mps 756 mmHg 96%
    05:00 +17°C° 0.2 mm 4 mps 756 mmHg 93%
    06:00 +18°C° 0.2 mm 4 mps 756 mmHg 89%
    07:00 +19°C° 0.2 mm 4 mps 756 mmHg 86%
    08:00 +20°C° 0 mm 3 mps 756 mmHg 81%
    09:00 +22°C° 0 mm 3 mps 756 mmHg 76%
    10:00 +24°C° 0 mm 3 mps 756 mmHg 71%
    11:00 +24°C° 0 mm 2 mps 756 mmHg 69%
    12:00 +25°C° 0 mm 2 mps 756 mmHg 66%
    13:00 +26°C° 0 mm 2 mps 756 mmHg 63%
    14:00 +25°C° 0.7 mm 2 mps 756 mmHg 67%
    15:00 +25°C° 0.7 mm 2 mps 756 mmHg 71%
    16:00 +25°C° 0.7 mm 2 mps 756 mmHg 76%
    17:00 +24°C° 0.3 mm 2 mps 756 mmHg 80%
    18:00 +21°C° 0.3 mm 2 mps 756 mmHg 85%
    19:00 +20°C° 0.3 mm 2 mps 756 mmHg 89%
    20:00 +19°C° 0.3 mm 2 mps 756 mmHg 91%
    21:00 +18°C° 0.3 mm 2 mps 756 mmHg 94%
    22:00 +17°C° 0.3 mm 2 mps 756 mmHg 96%
    23:00 +17°C° 0 mm 2 mps 756 mmHg 96%

    22 May, Wednesday

    Time Temperature Precipitation Wind Pressure Humidity
    00:00 +16°C° 0 mm 2 mps 756 mmHg 96%
    01:00 +16°C° 0 mm 2 mps 756 mmHg 96%
    02:00 +16°C° 0 mm 2 mps 755 mmHg 96%
    03:00 +16°C° 0 mm 2 mps 755 mmHg 96%
    04:00 +16°C° 0 mm 2 mps 755 mmHg 96%
    05:00 +17°C° 0 mm 2 mps 755 mmHg 93%
    06:00 +18°C° 0 mm 2 mps 755 mmHg 90%
    07:00 +19°C° 0 mm 2 mps 755 mmHg 86%
    08:00 +20°C° 0.1 mm 2 mps 755 mmHg 81%
    09:00 +21°C° 0.1 mm 2 mps 756 mmHg 76%
    10:00 +23°C° 0.1 mm 2 mps 756 mmHg 71%
    11:00 +22°C° 0 mm 3 mps 756 mmHg 69%
    12:00 +22°C° 0 mm 3 mps 756 mmHg 67%
    13:00 +22°C° 0 mm 3 mps 756 mmHg 65%
    14:00 +21°C° 0 mm 3 mps 756 mmHg 69%
    15:00 +21°C° 0 mm 3 mps 756 mmHg 73%
    16:00 +20°C° 0 mm 3 mps 755 mmHg 77%
    17:00 +19°C° 0 mm 3 mps 755 mmHg 81%
    18:00 +18°C° 0 mm 3 mps 755 mmHg 86%
    19:00 +17°C° 0 mm 2 mps 755 mmHg 90%
    20:00 +16°C° 0 mm 2 mps 755 mmHg 92%
    21:00 +15°C° 0 mm 2 mps 756 mmHg 94%
    22:00 +15°C° 0 mm 1 mps 756 mmHg 97%
    23:00 +14°C° 0 mm 1 mps 756 mmHg 97%

    23 May, Thursday

    Time Temperature Precipitation Wind Pressure Humidity
    00:00 +14°C° 0 mm 1 mps 755 mmHg 97%
    01:00 +14°C° 0 mm 1 mps 755 mmHg 97%
    02:00 +14°C° 0 mm 1 mps 755 mmHg 96%
    03:00 +14°C° 0 mm 1 mps 755 mmHg 96%
    04:00 +14°C° 0 mm 1 mps 755 mmHg 95%
    05:00 +15°C° 0 mm 2 mps 755 mmHg 90%
    06:00 +15°C° 0 mm 2 mps 755 mmHg 85%
    07:00 +16°C° 0 mm 2 mps 756 mmHg 80%
    08:00 +17°C° 0 mm 3 mps 756 mmHg 79%
    09:00 +17°C° 0 mm 4 mps 756 mmHg 78%
    10:00 +18°C° 0 mm 4 mps 756 mmHg 77%
    11:00 +15°C° 0 mm 4 mps 756 mmHg 77%
    12:00 +14°C° 0 mm 5 mps 756 mmHg 77%
    13:00 +13°C° 0 mm 5 mps 757 mmHg 77%
    14:00 +13°C° 0 mm 5 mps 757 mmHg 73%
    15:00 +13°C° 0 mm 4 mps 757 mmHg 70%
    16:00 +13°C° 0 mm 4 mps 757 mmHg 66%
    17:00 +12°C° 0 mm 4 mps 757 mmHg 71%
    18:00 +11°C° 0 mm 3 mps 757 mmHg 75%
    19:00 +10°C° 0 mm 3 mps 757 mmHg 80%
    20:00 +10°C° 0 mm 3 mps 757 mmHg 82%
    21:00 +9°C° 0 mm 3 mps 757 mmHg 84%
    22:00 +9°C° 0 mm 3 mps 757 mmHg 87%
    23:00 +8°C° 0 mm 3 mps 757 mmHg 87%

    24 May, Friday

    Time Temperature Precipitation Wind Pressure Humidity
    00:00 +8°C° 0 mm 3 mps 757 mmHg 87%
    01:00 +8°C° 0 mm 3 mps 757 mmHg 87%
    02:00 +8°C° 0 mm 3 mps 757 mmHg 88%
    03:00 +8°C° 0 mm 3 mps 757 mmHg 88%
    04:00 +8°C° 0 mm 3 mps 757 mmHg 89%
    05:00 +9°C° 0 mm 3 mps 756 mmHg 84%
    06:00 +11°C° 0 mm 3 mps 756 mmHg 80%
    07:00 +12°C° 0 mm 4 mps 756 mmHg 75%
    08:00 +12°C° 0 mm 4 mps 756 mmHg 72%
    09:00 +13°C° 0 mm 5 mps 756 mmHg 69%
    10:00 +13°C° 0 mm 5 mps 756 mmHg 66%
    11:00 +13°C° 0 mm 6 mps 756 mmHg 67%
    12:00 +13°C° 0 mm 6 mps 756 mmHg 67%
    13:00 +13°C° 0 mm 6 mps 755 mmHg 67%
    14:00 +13°C° 0 mm 6 mps 755 mmHg 70%
    15:00 +11°C° 0 mm 6 mps 755 mmHg 73%
    16:00 +11°C° 0 mm 6 mps 755 mmHg 76%
    17:00 +10°C° 0 mm 5 mps 754 mmHg 80%
    18:00 +10°C° 0 mm 5 mps 754 mmHg 83%
    19:00 +10°C° 0 mm 4 mps 754 mmHg 87%
    20:00 +9°C° 0 mm 5 mps 754 mmHg 89%
    21:00 +8°C° 0 mm 5 mps 754 mmHg 92%
    22:00 +8°C° 0 mm 5 mps 753 mmHg 94%
    23:00 +8°C° 0 mm 4 mps 753 mmHg 94%
    Show more